Regional Weather Roundup
Issued by NWS

Home | Current Version | Previous Version | Text Only | Print | Product List | Glossary Off
Versions: 1 2 3 4 5 6 7 8 9 10 11 12 13 14 15 16 17 18 19 20 21 22 23 24 25 26 27 28 29 30 31 32 33 34 35 36 37 38 39 40 41 42 43 44 45 46 47 48 49 50

000
ASUS43 KTOP 231808
RWRKS

WEATHER ROUNDUP FOR KANSAS
NATIONAL WEATHER SERVICE GOODLAND KS
1200 PM CST FRI FEB 23 2018

NOTE:  "FAIR" INDICATES FEW OR NO CLOUDS BELOW 12,000 FEET WITH NO
SIGNIFICANT WEATHER AND/OR OBSTRUCTIONS TO VISIBILITY.

KSZ001>006-013>018-027>032-041>047-231900-
NORTHWEST KANSAS

CITY           SKY/WX    TMP DP  RH WIND       PRES   REMARKS
GOODLAND       SUNNY     33  21  61 SE9       30.15F
6HR MIN TEMP:  16; 6HR MAX TEMP:  33;

HAYS           CLOUDY    31  27  85 CALM      30.27F
HILL CITY      CLOUDY    29  25  85 VRB3      30.26F
6HR MIN TEMP:  18; 6HR MAX TEMP:  27;

RUSSELL        PTSUNNY   36  29  75 NE3       30.26F
6HR MIN TEMP:  25; 6HR MAX TEMP:  36;

$$

KSZ061>065-074>080-084>089-231900-
SOUTHWEST KANSAS

CITY           SKY/WX    TMP DP  RH WIND       PRES   REMARKS
DODGE CITY     CLOUDY    29  27  92 NE10      30.19F FOG     WCI  20
6HR MIN TEMP:  29; 6HR MAX TEMP:  30;

ELKHART        CLOUDY    30  30 100 CALM      30.13F
GARDEN CITY    CLOUDY    28  27  96 E9        30.18F
6HR MIN TEMP:  26; 6HR MAX TEMP:  29;

GREAT BEND     CLOUDY    30  28  93 VRB3      30.26F
LIBERAL        CLOUDY    31  30  96 E9        30.16F
PRATT          CLOUDY    31  27  86 NE8       30.23F
6HR MIN TEMP:  29; 6HR MAX TEMP:  31;

$$

KSZ066>073-081>083-090>101-231900-
SOUTHEAST KANSAS

CITY           SKY/WX    TMP DP  RH WIND       PRES   REMARKS
CHANUTE        CLOUDY    39  34  82 NE8       30.28S
6HR MIN TEMP:  35; 6HR MAX TEMP:  39;

COFFEYVILLE    CLOUDY    40  37  89 NE6       30.28S
6HR MIN TEMP:  36; 6HR MAX TEMP:  40;

HUTCHINSON     CLOUDY    31  28  89 N8        30.26F
6HR MIN TEMP:  30; 6HR MAX TEMP:  32;

MEDICINE LODGE   N/A     33  31  92 NE10      30.25R WCI  25
NEWTON         CLOUDY    30  27  88 NE5       30.27F
PARSONS        CLOUDY    39  36  89 NE5       30.29R
6HR MIN TEMP:  35; 6HR MAX TEMP:  40;

WICHITA INTL   CLOUDY    34  31  88 NE9       30.27R
6HR MIN TEMP:  33; 6HR MAX TEMP:  34;

WICHITA JABRA  CLOUDY    32  31  96 NE8       30.27R
6HR MIN TEMP:  31; 6HR MAX TEMP:  32;

WICHITA MCCONL CLOUDY    33  31  95 E3        30.27R
WINFIELD       CLOUDY    36  35  96 E7        30.28S
6HR MIN TEMP:  32; 6HR MAX TEMP:  36;

$$

KSZ007>012-019>026-033>040-048>060-102>105-231900-
NORTHEAST KANSAS

CITY           SKY/WX    TMP DP  RH WIND       PRES   REMARKS
CONCORDIA      SUNNY     31  25  78 N5        30.29F
6HR MIN TEMP:  18; 6HR MAX TEMP:  31; 6HR PCP: TRACE;

EMPORIA        CLOUDY    32  28  85 N6        30.29S
6HR MIN TEMP:  31; 6HR MAX TEMP:  32;

LAWRENCE       CLOUDY    35  30  82 N6        30.31S
6HR MIN TEMP:  33; 6HR MAX TEMP:  35;

MANHATTAN      CLOUDY    33  26  75 CALM      30.30F
6HR MIN TEMP:  31; 6HR MAX TEMP:  33;

MARYSVILLE     MOSUNNY   32  28  86 NW5       30.31S
OLATHE IND     CLOUDY    33  31  92 N6        30.29F
6HR MIN TEMP:  32; 6HR MAX TEMP:  33;

OLATHE EXE     CLOUDY    33  31  92 N5        30.28F
6HR MIN TEMP:  32; 6HR MAX TEMP:  33;

SALINA         PTSUNNY   36  29  75 NE7       30.29F
6HR MIN TEMP:  27; 6HR MAX TEMP:  36;

TOPEKA BILLARD CLOUDY    35  29  78 N6        30.31S
6HR MIN TEMP:  33; 6HR MAX TEMP:  35;

TOPEKA FORBES  CLOUDY    35  28  75 NE3       30.28F
6HR MIN TEMP:  33; 6HR MAX TEMP:  35;

$$




USA.gov is the U.S. government's official web portal to all federal, state and local government web resources and services.